Tracking 22438 objects as of 25-Feb-2021
HD Live streaming from Space Station
objects crossing your sky now

SATCOM 1

Track SATCOM 1 now!
SATCOM 1 is classified as:


NORAD ID: 8476
Int'l Code: 1975-117A
Perigee: 35,929.4 km
Apogee: 36,032.3 km
Inclination: 12.0 °
Period: 1,445.7 minutes
Semi major axis: 42351 km
RCS: 2.5118 m2 (large)
Launch date: December 13, 1975
Source: United States (US)
Launch site: AIR FORCE EASTERN TEST RANGE (AFETR)
aabbcc
Your satellite tracking list
Your tracking list is empty




NASA's NSSDC Master Catalog

Two Line Element Set (TLE):
1 08476U 75117A   21055.79032312 -.00000296  00000-0  00000-0 0  9994
2 08476  12.0028 321.4499 0012157 218.0630  49.0089  0.99608053 27052
Source of the keplerian elements: AFSPC